Location: Del Oro Observatory
(38.3044°N, 104.8119°W)
Time: 20:12:47
(UTC-06:00)

Daily predictions for brighter satellites

Satellite Brightness Start Highest point End
(mag) Time Altitude Azimuth Time Altitude Azimuth Time Altitude Azimuth
Cosmos 192 4.4 19:33:23 10° N 19:38:16 60° ENE 19:43:06 10° SSE
Cosmos 1844 Rocket 2.7 19:33:27 10° SSW 19:39:03 71° ESE 19:44:41 10° NNE
Spot 2 Rocket 4.3 19:35:00 10° SE 19:39:26 31° ENE 19:43:54 10° N
COSMO-SKYMED 1 4.2 19:35:23 10° N 19:39:27 40° WNW 19:43:30 10° SW
Cosmos 2150 Rocket 4.1 19:35:30 10° S 19:40:29 52° ESE 19:45:29 10° NNE
Cosmos 2112 Rocket 4.3 19:36:10 10° NNW 19:41:28 74° WSW 19:46:39 10° S
Tiangong 1 1.8 19:43:09 10° WNW 19:45:57 38° N 19:48:42 10° E
USA 215 3.9 19:41:37 10° ENE 19:47:25 33° SE 19:53:11 10° S
Cosmos 1378 3.6 19:44:46 10° N 19:48:20 40° E 19:51:53 10° SSE
Cosmos 2278 Rocket 2.8 19:43:32 10° SSE 19:48:34 34° ESE 19:53:37 10° NE
FengYun 1-2 T 4.4 19:43:40 10° SSE 19:49:03 55° ENE 19:54:33 10° N
Cosmos 1953 4.1 19:49:45 10° ESE 19:51:44 13° E 19:53:42 10° ENE
Cosmos 1898 Rocket 3.6 19:47:57 10° SSW 19:53:17 89° WNW 19:58:36 10° NNE
Cosmos 990 Rocket 4.1 19:49:06 10° S 19:54:10 53° ESE 19:59:17 10° NNE
Cosmos 1934 Rocket 4.1 19:49:34 10° SSE 19:55:31 53° E 20:01:25 10° NNE
USA 186 3.3 19:56:32 10° ENE 19:56:32 10° ENE 19:56:46 10° ENE
H-2A R/B 3.2 19:53:26 10° SE 19:57:05 42° ENE 20:00:48 10° N
FENGYUN 3A 3.6 19:53:55 10° SSE 19:59:18 73° ENE 20:04:42 10° N
Cosmos 1707 3.0 19:59:42 10° NNW 20:03:37 72° W 20:07:28 10° S
Meteor 1-24 Rocket 3.7 20:00:00 10° N 20:05:25 60° E 20:11:00 10° SSE
HJ-1C 3.5 20:07:35 10° S 20:10:57 82° WSW 20:14:23 10° NNW
BREEZE-M DEB (TANK) 2.6 20:08:44 10° SW 20:11:17 77° SE 20:17:09 10° NE
Meteor 2-5 Rocket 4.1 20:06:17 10° NNW 20:11:59 70° W 20:17:45 10° S
Geosat 3.9 20:08:37 10° NNE 20:13:38 66° ESE 20:18:36 10° SSW
CZ-4B DEB 4.4 20:14:18 17° ENE 20:14:18 17° ENE 20:16:11 10° NNE
Meteor 1-4 Rocket 3.8 20:14:46 20° E 20:14:46 20° E 20:17:12 10° NE
ALOS 2.5 20:10:33 10° S 20:15:12 72° W 20:19:53 10° NNW
Cosmos 1821 Rocket 4.2 20:09:02 10° S 20:15:26 82° W 20:21:50 10° N
Cosmos 1544 3.8 20:13:14 10° SSE 20:16:26 30° E 20:19:41 10° NNE
Cosmos 1766 3.1 20:12:40 10° S 20:16:32 72° E 20:20:24 10° NNE
GP-B 4.2 20:14:49 18° ESE 20:16:45 24° E 20:20:17 10° NNE
Cosmos 1812 Rocket 3.6 20:12:43 10° S 20:17:08 82° W 20:21:34 10° N
Resurs 01 Rocket 1.5 20:13:28 10° SSE 20:17:51 78° ENE 20:22:17 10° N
RESURS DK-1 2.6 20:15:34 10° NNW 20:19:35 47° ENE 20:22:06 20° SE
Cosmos 2082 Rocket 3.6 20:15:23 10° N 20:19:38 21° NE 20:21:39 18° E
SL-27 R/B 2.5 20:18:18 10° N 20:21:50 56° ENE 20:24:14 19° SE
Meteor 1-29 3.7 20:22:34 10° NE 20:25:41 30° E 20:26:20 28° ESE
Cosmos 1937 Rocket 4.0 20:21:00 10° SSW 20:26:10 62° WNW 20:31:26 10° NNE
COSMOS 2406 4.1 20:21:36 10° NNW 20:27:10 52° WSW 20:32:40 10° S
Lacrosse 5 1.8 20:25:47 10° SW 20:30:51 89° NW 20:35:57 10° NE
Cosmos 1605 Rocket 3.9 20:27:08 10° S 20:33:19 75° E 20:39:40 10° N
OE (NEXTSAT) 4.3 20:30:50 10° WSW 20:34:25 90° WSW 20:36:03 30° ENE
Delta 2 Rocket 3.8 20:31:05 10° W 20:35:37 53° S 20:37:14 32° SE
Cosmos 1076 Rocket 4.0 20:31:49 10° N 20:35:47 37° ENE 20:36:38 33° ESE
SeaSat 1 3.8 20:32:07 10° S 20:36:43 40° WSW 20:41:20 10° NW
Cosmos 2098 Rocket 4.4 20:33:53 10° SSE 20:40:37 60° E 20:48:04 10° NNE
Spot 1 4.2 20:38:33 18° SSE 20:41:52 71° ENE 20:46:40 10° N
Meteor 1-21 Rocket 4.5 20:39:50 10° N 20:45:28 50° ENE 20:48:21 28° SE
CZ-2D R/B 3.7 20:42:41 10° S 20:46:30 63° W 20:50:21 10° NNW
CZ-3B DEB 3.6 20:36:18 10° WSW 20:47:38 55° NW 20:52:48 10° NE
Cosmos 2123 Rocket 4.2 20:41:33 10° N 20:47:52 75° W 20:54:07 10° S
Helios 1B rocket 2.4 20:48:39 10° NNE 20:52:48 86° WNW 20:56:55 10° SSW
Helios 1A 2.9 20:50:45 26° SSE 20:53:03 88° WSW 20:57:16 10° NNW
Cosmos 1805 3.3 20:49:17 10° S 20:53:10 80° W 20:57:05 10° N
Cosmos 1674 3.9 20:51:15 10° N 20:53:31 28° NE 20:53:31 28° NE
Cosmos-2242 4.3 20:58:46 26° NE 20:58:46 26° NE 21:00:57 10° NNE
Cosmos 1867 3.6 20:52:06 10° S 20:57:21 52° ESE 21:02:40 10° NE
Cosmos 2061 Rocket 4.4 20:56:15 34° SE 20:58:09 42° E 21:04:08 10° NNE
Cosmos 1153 Rocket 4.5 20:56:18 10° S 21:02:40 87° E 21:09:07 10° N
Lacrosse 4 Rocket 4.4 21:00:17 10° W 21:02:52 16° NW 21:05:29 10° NNW
Timation 2 Rocket 4.4 20:57:53 10° N 21:03:49 40° ENE 21:04:44 38° E
Cosmos 372 Rocket 3.8 21:08:19 10° S 21:13:22 70° ESE 21:18:30 10° NNE
Cosmos 1758 4.3 21:13:39 10° SSW 21:17:29 46° W 21:21:20 10° N
Tiangong 1 3.5 21:19:03 10° WNW 21:20:13 21° W 21:20:13 21° W
SJ-11-01 4.3 21:22:46 62° SSW 21:23:29 76° WSW 21:28:13 10° NNW
H-2A R/B 4.2 21:26:32 15° NE 21:26:32 15° NE 21:27:55 10° NNE
Cosmos 1939 Rocket 3.3 21:25:21 64° NW 21:25:21 64° NW 21:28:59 10° NNW
Cosmos 1953 3.7 21:23:57 10° SSW 21:27:45 39° W 21:31:35 10° N
Cosmos 158 Rocket 4.0 21:24:13 10° NNW 21:28:50 67° NNE 21:28:50 67° NNE
USA 215 3.6 21:24:10 10° NE 21:30:37 64° NW 21:37:03 10° WSW
Cosmos 1408 Rocket 3.8 21:26:18 10° NNW 21:30:23 67° WNW 21:30:23 67° WNW
Cosmos 2278 Rocket 3.9 21:27:34 10° WSW 21:32:36 32° WNW 21:37:39 10° N
Cosmos 1459 Rocket 3.9 21:29:44 35° S 21:32:37 87° E 21:38:51 10° N
Cosmos 1833 Rocket 2.6 21:29:03 10° NNW 21:34:24 72° NE 21:34:24 72° NE
Cosmos 2173 Rocket 3.8 21:32:36 44° S 21:34:46 89° E 21:41:02 10° N
Envisat 3.6 21:34:42 41° SSW 21:36:05 54° W 21:41:05 10° NNW
Cosmos 2297 4.3 21:39:12 10° SW 21:44:45 55° WNW 21:50:25 10° NNE
Cosmos 1048 Rocket 4.4 21:44:51 10° NNW 21:49:28 57° W 21:49:28 57° W
Lacrosse 5 rocket 3.9 21:50:03 10° NNW 21:50:52 14° NNW 21:50:52 14° NNW
USA 267 3.7 22:02:01 49° NNE 22:02:01 49° NNE 22:08:02 10° NW
ERS-1 Rocket 3.9 22:03:31 46° NW 22:03:31 46° NW 22:07:22 10° NNW
Cosmos 2082 Rocket 2.8 21:58:32 10° NNW 22:03:31 53° W 22:03:31 53° W
Cosmos 2016 Rocket 4.2 22:06:36 66° NW 22:06:36 66° NW 22:12:08 10° N
Lacrosse 5 4.2 22:10:48 10° WNW 22:14:29 20° NNW 22:16:45 15° N
SPOT 5 4.5 22:17:05 34° NNW 22:17:05 34° NNW 22:20:05 10° NNW
